Meteo pe oră la Bolshie Polyany

Astăzi, 19 Mai, Miercuri

Timp Temperatura Precipitaţii Vânt Presiune Umiditate
00:00 +20°C° 0 mm 5 m/s 746 mmHg 57%
01:00 +20°C° 0 mm 6 m/s 746 mmHg 54%
02:00 +20°C° 0 mm 6 m/s 746 mmHg 52%
03:00 +19°C° 0 mm 6 m/s 746 mmHg 49%
04:00 +19°C° 0 mm 6 m/s 746 mmHg 54%
05:00 +19°C° 0 mm 6 m/s 746 mmHg 59%
06:00 +19°C° 0 mm 6 m/s 746 mmHg 64%
07:00 +21°C° 0 mm 6 m/s 746 mmHg 62%
08:00 +22°C° 0 mm 6 m/s 746 mmHg 60%
09:00 +24°C° 0 mm 6 m/s 746 mmHg 59%
10:00 +26°C° 0 mm 6 m/s 746 mmHg 55%
11:00 +27°C° 0 mm 6 m/s 746 mmHg 52%
12:00 +29°C° 0 mm 6 m/s 746 mmHg 49%
13:00 +29°C° 0 mm 6 m/s 746 mmHg 50%
14:00 +29°C° 0 mm 6 m/s 746 mmHg 50%
15:00 +29°C° 0 mm 6 m/s 746 mmHg 51%
16:00 +28°C° 0 mm 6 m/s 746 mmHg 54%
17:00 +27°C° 0 mm 5 m/s 745 mmHg 58%
18:00 +26°C° 0 mm 5 m/s 745 mmHg 61%
19:00 +25°C° 0 mm 5 m/s 745 mmHg 62%
20:00 +23°C° 0 mm 6 m/s 745 mmHg 63%
21:00 +22°C° 0 mm 6 m/s 745 mmHg 64%
22:00 +22°C° 0 mm 7 m/s 745 mmHg 61%
23:00 +22°C° 0 mm 7 m/s 745 mmHg 59%

Mâine, 20 Mai, Joi

Timp Temperatura Precipitaţii Vânt Presiune Umiditate
00:00 +22°C° 0 mm 8 m/s 744 mmHg 56%
01:00 +20°C° 0.1 mm 6 m/s 745 mmHg 66%
02:00 +17°C° 0.1 mm 5 m/s 745 mmHg 77%
03:00 +17°C° 0.1 mm 3 m/s 745 mmHg 87%
04:00 +17°C° 0.1 mm 3 m/s 745 mmHg 87%
05:00 +17°C° 0.1 mm 3 m/s 745 mmHg 88%
06:00 +17°C° 0.1 mm 3 m/s 745 mmHg 89%
07:00 +18°C° 0 mm 3 m/s 745 mmHg 84%
08:00 +19°C° 0 mm 3 m/s 745 mmHg 79%
09:00 +19°C° 0 mm 3 m/s 745 mmHg 74%
10:00 +20°C° 0 mm 4 m/s 745 mmHg 70%
11:00 +20°C° 0 mm 4 m/s 745 mmHg 66%
12:00 +21°C° 0 mm 4 m/s 745 mmHg 62%
13:00 +21°C° 0 mm 5 m/s 745 mmHg 60%
14:00 +22°C° 0 mm 5 m/s 745 mmHg 57%
15:00 +22°C° 0 mm 5 m/s 745 mmHg 54%
16:00 +21°C° 0 mm 4 m/s 745 mmHg 60%
17:00 +20°C° 0 mm 4 m/s 745 mmHg 65%
18:00 +20°C° 0 mm 3 m/s 744 mmHg 71%
19:00 +18°C° 0.1 mm 3 m/s 744 mmHg 75%
20:00 +17°C° 0.1 mm 3 m/s 744 mmHg 80%
21:00 +16°C° 0.1 mm 2 m/s 744 mmHg 85%
22:00 +15°C° 0 mm 2 m/s 745 mmHg 87%
23:00 +14°C° 0 mm 3 m/s 745 mmHg 89%

Poimâine, 21 Mai, Vineri

Timp Temperatura Precipitaţii Vânt Presiune Umiditate
00:00 +13°C° 0 mm 3 m/s 745 mmHg 92%
01:00 +13°C° 0 mm 3 m/s 745 mmHg 93%
02:00 +12°C° 0 mm 3 m/s 745 mmHg 95%
03:00 +12°C° 0 mm 3 m/s 745 mmHg 96%
04:00 +12°C° 0 mm 3 m/s 745 mmHg 94%
05:00 +13°C° 0 mm 3 m/s 745 mmHg 91%
06:00 +13°C° 0 mm 4 m/s 746 mmHg 89%
07:00 +14°C° 0.1 mm 4 m/s 746 mmHg 88%
08:00 +14°C° 0.1 mm 5 m/s 746 mmHg 86%
09:00 +15°C° 0.1 mm 5 m/s 746 mmHg 85%
10:00 +16°C° 0.1 mm 6 m/s 747 mmHg 79%
11:00 +17°C° 0.1 mm 7 m/s 747 mmHg 74%
12:00 +18°C° 0.1 mm 7 m/s 747 mmHg 69%
13:00 +17°C° 0 mm 7 m/s 747 mmHg 69%
14:00 +17°C° 0 mm 6 m/s 748 mmHg 69%
15:00 +17°C° 0 mm 6 m/s 748 mmHg 69%
16:00 +17°C° 0.1 mm 6 m/s 748 mmHg 72%
17:00 +16°C° 0.1 mm 6 m/s 749 mmHg 75%
18:00 +16°C° 0.1 mm 5 m/s 749 mmHg 77%
19:00 +15°C° 0 mm 4 m/s 750 mmHg 83%
20:00 +13°C° 0 mm 4 m/s 750 mmHg 88%
21:00 +12°C° 0 mm 3 m/s 751 mmHg 93%
22:00 +13°C° 0 mm 2 m/s 751 mmHg 92%
23:00 +13°C° 0 mm 2 m/s 751 mmHg 91%

22 Mai, Sâmbătă

Timp Temperatura Precipitaţii Vânt Presiune Umiditate
00:00 +13°C° 0 mm 1 m/s 751 mmHg 90%
01:00 +13°C° 0 mm 1 m/s 751 mmHg 90%
02:00 +13°C° 0 mm 1 m/s 752 mmHg 90%
03:00 +13°C° 0 mm 1 m/s 752 mmHg 90%
04:00 +13°C° 0 mm 1 m/s 752 mmHg 89%
05:00 +14°C° 0 mm 1 m/s 753 mmHg 88%
06:00 +14°C° 0 mm 2 m/s 753 mmHg 87%
07:00 +14°C° 0.5 mm 2 m/s 753 mmHg 88%
08:00 +14°C° 0.5 mm 2 m/s 753 mmHg 90%
09:00 +14°C° 0.5 mm 2 m/s 753 mmHg 91%
10:00 +14°C° 1.2 mm 2 m/s 753 mmHg 92%
11:00 +14°C° 1.2 mm 2 m/s 753 mmHg 94%
12:00 +13°C° 1.2 mm 3 m/s 753 mmHg 95%
13:00 +13°C° 0.7 mm 3 m/s 752 mmHg 94%
14:00 +13°C° 0.7 mm 3 m/s 752 mmHg 94%
15:00 +13°C° 0.7 mm 3 m/s 752 mmHg 93%
16:00 +13°C° 2.9 mm 4 m/s 752 mmHg 95%
17:00 +13°C° 2.9 mm 4 m/s 751 mmHg 96%
18:00 +12°C° 2.9 mm 4 m/s 751 mmHg 97%
19:00 +13°C° 1.3 mm 4 m/s 751 mmHg 96%
20:00 +13°C° 1.3 mm 4 m/s 751 mmHg 95%
21:00 +13°C° 1.3 mm 4 m/s 751 mmHg 95%
22:00 +13°C° 0.1 mm 4 m/s 751 mmHg 95%
23:00 +13°C° 0.1 mm 4 m/s 751 mmHg 94%

23 Mai, Duminică

Timp Temperatura Precipitaţii Vânt Presiune Umiditate
00:00 +13°C° 0.1 mm 4 m/s 750 mmHg 94%
01:00 +13°C° 0.5 mm 4 m/s 750 mmHg 94%
02:00 +13°C° 0.5 mm 5 m/s 750 mmHg 94%
03:00 +13°C° 0.5 mm 5 m/s 750 mmHg 94%
04:00 +13°C° 0.1 mm 5 m/s 750 mmHg 94%
05:00 +13°C° 0.1 mm 5 m/s 749 mmHg 95%
06:00 +14°C° 0.1 mm 6 m/s 749 mmHg 95%
07:00 +15°C° 0 mm 6 m/s 749 mmHg 92%
08:00 +16°C° 0 mm 6 m/s 749 mmHg 89%
09:00 +17°C° 0 mm 6 m/s 748 mmHg 86%
10:00 +20°C° 0 mm 6 m/s 748 mmHg 80%
11:00 +22°C° 0 mm 6 m/s 748 mmHg 73%
12:00 +24°C° 0 mm 6 m/s 747 mmHg 67%
13:00 +26°C° 0 mm 6 m/s 747 mmHg 66%
14:00 +27°C° 0 mm 6 m/s 746 mmHg 64%
15:00 +28°C° 0 mm 6 m/s 745 mmHg 63%
16:00 +27°C° 0 mm 5 m/s 745 mmHg 67%
17:00 +26°C° 0 mm 5 m/s 744 mmHg 71%
18:00 +25°C° 0 mm 4 m/s 744 mmHg 75%
19:00 +23°C° 0 mm 4 m/s 743 mmHg 75%
20:00 +23°C° 0 mm 4 m/s 743 mmHg 74%
21:00 +22°C° 0 mm 4 m/s 742 mmHg 74%
22:00 +22°C° 0 mm 5 m/s 742 mmHg 67%
23:00 +22°C° 0 mm 6 m/s 742 mmHg 59%

24 Mai, Luni

Timp Temperatura Precipitaţii Vânt Presiune Umiditate
00:00 +22°C° 0 mm 6 m/s 741 mmHg 52%
01:00 +22°C° 0 mm 6 m/s 741 mmHg 52%
02:00 +21°C° 0 mm 6 m/s 741 mmHg 52%
03:00 +20°C° 0 mm 6 m/s 741 mmHg 53%
04:00 +20°C° 0 mm 5 m/s 742 mmHg 65%
05:00 +19°C° 0 mm 5 m/s 742 mmHg 78%
06:00 +19°C° 0 mm 4 m/s 743 mmHg 91%
07:00 +19°C° 0 mm 5 m/s 743 mmHg 85%
08:00 +20°C° 0 mm 6 m/s 744 mmHg 79%
09:00 +20°C° 0 mm 7 m/s 745 mmHg 73%
10:00 +20°C° 0 mm 7 m/s 746 mmHg 68%
11:00 +20°C° 0 mm 7 m/s 746 mmHg 64%
12:00 +20°C° 0 mm 7 m/s 747 mmHg 60%
13:00 +20°C° 0 mm 7 m/s 747 mmHg 59%
14:00 +20°C° 0 mm 6 m/s 748 mmHg 59%
15:00 +20°C° 0 mm 6 m/s 749 mmHg 58%
16:00 +20°C° 0 mm 5 m/s 749 mmHg 61%
17:00 +19°C° 0 mm 5 m/s 749 mmHg 64%
18:00 +19°C° 0 mm 4 m/s 750 mmHg 68%
19:00 +17°C° 0 mm 4 m/s 750 mmHg 73%
20:00 +14°C° 0 mm 3 m/s 750 mmHg 78%
21:00 +13°C° 0 mm 3 m/s 751 mmHg 83%
22:00 +12°C° 0 mm 3 m/s 751 mmHg 85%
23:00 +11°C° 0 mm 3 m/s 752 mmHg 88%
Arată mai mult

Formular de consimțământ

Meteoprog și furnizorii noștri de servicii pot stoca și accesa date personale, precum cookies, identificatori de dispozitiv sau alte tehnologii similare pe dispozitivul dumneavoastră și procesa astfel de date pentru a personaliza conținutul și reclamele, dar și pentru a oferi caracteristici de social media și pentru a analiza traficul.

  • Stocarea și/sau accesarea informațiilor pe dispozitivul dumneavoastră

    Cookies, identificatori de dispozitiv sau alte informații pot fi stocate sau accesate pe dispozitiv în scopurile indicate mai sus.

  • Reclame și conținut personalizat, evaluarea reclamelor și a conținutului, informații despre audiențe și dezvoltarea produselor

    Reclamele și conținutul pot fi personalizate pe baza unui profil. Pot fi adăugate date suplimentare pentru a personaliza mai bine reclamele și conținutul. Performanța reclamelor și conținutului poate fi măsurată. Pot fi obținute informații despre utilizatorii care au văzut reclamele și conținutul. Aceste date pot fi utilizate pentru a dezvolta sau îmbunătăți experiența utilizatorilor, sistemele și software-ul.

Dând clic pe ‘Sunt de acord’, permiteți utilizarea cookie-urilor menționate, a identificatorilor de dispozitiv, balizelor web sau altor tehnologii similare. Setările pot fi modificate din browser-ul dispozitivului dumneavoastră.

În anumite scopuri, interesele legitime pot prima asupra consimțământului. Puteți citi mai multe informații în acest sens în Politica privind Confidențialitatea Datelor și Cookie.